This is the latest recevied weather packets stored in our database for station/object NK7E-2. If no packets are shown the sender has not sent any weather packets the latest 10 day(s).
| Time | Temp. | Humidity | Pressure | Rain* | Wind** | Luminosity | Snow |
|---|---|---|---|---|---|---|---|
| 1777839316 | 27.78° C | 26% | 1022.8 hPa | 0 mm | - | - | - |
| 1777838715 | 27.78° C | 27% | 1022.8 hPa | 0 mm | - | - | - |
| 1777838117 | 27.22° C | 28% | 1022.8 hPa | 0 mm | - | - | - |
| 1777837517 | 27.22° C | 28% | 1023.1 hPa | 0 mm | - | - | - |
| 1777836949 | 27.22° C | 28% | 1023.1 hPa | 0 mm | - | - | - |
| 1777836317 | 27.22° C | 28% | 1023.2 hPa | 0 mm | - | - | - |
| 1777835718 | 27.22° C | 29% | 1023.3 hPa | 0 mm | - | - | - |
| 1777835117 | 27.22° C | 29% | 1023.5 hPa | 0 mm | - | - | - |
| 1777834517 | 26.67° C | 29% | 1023.5 hPa | 0 mm | - | - | - |
| 1777833917 | 26.67° C | 29% | 1023.5 hPa | 0 mm | - | - | - |
| 1777833317 | 26.67° C | 30% | 1023.6 hPa | 0 mm | - | - | - |
| 1777832718 | 26.67° C | 30% | 1023.9 hPa | 0 mm | - | - | - |
| 1777832117 | 26.67° C | 30% | 1024.2 hPa | 0 mm | - | - | - |
| 1777831517 | 26.67° C | 30% | 1024.5 hPa | 0 mm | - | - | - |
| 1777830917 | 26.67° C | 30% | 1024.6 hPa | 0 mm | - | - | - |
| 1777830317 | 26.67° C | 30% | 1024.7 hPa | 0 mm | - | - | - |
| 1777829717 | 26.67° C | 30% | 1024.6 hPa | 0 mm | - | - | - |
| 1777829117 | 26.11° C | 31% | 1024.6 hPa | 0 mm | - | - | - |
| 1777828517 | 26.67° C | 30% | 1024.9 hPa | 0 mm | - | - | - |
| 1777827917 | 26.11° C | 31% | 1024.6 hPa | 0 mm | - | - | - |
| 1777827317 | 26.11° C | 31% | 1024.5 hPa | 0 mm | - | - | - |
| 1777826717 | 26.11° C | 30% | 1024.8 hPa | 0 mm | - | - | - |
| 1777826117 | 25.56° C | 31% | 1024.8 hPa | 0 mm | - | - | - |
| 1777825517 | 25° C | 32% | 1024.3 hPa | 0 mm | - | - | - |
| 1777824917 | 24.44° C | 33% | 1024.2 hPa | 0 mm | - | - | - |
* Rain latest hour (hover to see other rain measurements)
** Current wind speed in m/s (hover to see current wind gust speed)